• In Netherlands
  • List of Countries
  • For 7 days
  • Water Temperature
  • Satellite Maps
  • Weather Map
  • Weather Widgets
  • user-avatar
    Login

    Hourly Weather Borovec

    Today, 24 March, Friday

    Time Temperature Precipitation Wind Pressure Humidity
    00:00 +9°C° 0 mm 2 mps 713 mmHg 77%
    01:00 +10°C° 0 mm 1 mps 713 mmHg 77%
    02:00 +9°C° 0 mm 2 mps 713 mmHg 78%
    03:00 +9°C° 0.1 mm 1 mps 713 mmHg 79%
    04:00 +9°C° 0.1 mm 1 mps 713 mmHg 81%
    05:00 +9°C° 0.1 mm 1 mps 713 mmHg 82%
    06:00 +10°C° 0 mm 1 mps 714 mmHg 78%
    07:00 +12°C° 0 mm 1 mps 714 mmHg 74%
    08:00 +13°C° 0 mm 1 mps 715 mmHg 65%
    09:00 +14°C° 0 mm 0 mps 715 mmHg 58%
    10:00 +17°C° 0 mm 0 mps 715 mmHg 51%
    11:00 +19°C° 0 mm 0 mps 716 mmHg 44%
    12:00 +22°C° 0 mm 1 mps 715 mmHg 41%
    13:00 +22°C° 0 mm 1 mps 715 mmHg 39%
    14:00 +23°C° 0 mm 1 mps 715 mmHg 37%
    15:00 +22°C° 0.1 mm 1 mps 715 mmHg 39%
    16:00 +22°C° 0.1 mm 1 mps 714 mmHg 42%
    17:00 +21°C° 0.1 mm 1 mps 714 mmHg 44%
    18:00 +19°C° 0 mm 1 mps 714 mmHg 53%
    19:00 +15°C° 0 mm 1 mps 714 mmHg 62%
    20:00 +12°C° 0 mm 1 mps 713 mmHg 71%
    21:00 +12°C° 0 mm 1 mps 713 mmHg 74%
    22:00 +11°C° 0 mm 1 mps 713 mmHg 76%
    23:00 +10°C° 0 mm 0 mps 714 mmHg 78%

    Tomorrow, 25 March, Saturday

    Time Temperature Precipitation Wind Pressure Humidity
    00:00 +11°C° 0 mm 1 mps 713 mmHg 81%
    01:00 +10°C° 0 mm 1 mps 713 mmHg 83%
    02:00 +10°C° 0 mm 1 mps 713 mmHg 85%
    03:00 +10°C° 0 mm 1 mps 713 mmHg 87%
    04:00 +9°C° 0 mm 1 mps 713 mmHg 88%
    05:00 +9°C° 0 mm 1 mps 713 mmHg 90%
    06:00 +11°C° 0 mm 1 mps 714 mmHg 86%
    07:00 +12°C° 0 mm 1 mps 714 mmHg 82%
    08:00 +13°C° 0 mm 1 mps 714 mmHg 77%
    09:00 +15°C° 0 mm 1 mps 715 mmHg 70%
    10:00 +16°C° 0 mm 2 mps 715 mmHg 63%
    11:00 +18°C° 0 mm 2 mps 715 mmHg 56%
    12:00 +18°C° 0 mm 3 mps 715 mmHg 56%
    13:00 +18°C° 0 mm 3 mps 714 mmHg 56%
    14:00 +18°C° 0 mm 3 mps 714 mmHg 56%
    15:00 +17°C° 0 mm 3 mps 714 mmHg 59%
    16:00 +16°C° 0 mm 3 mps 713 mmHg 62%
    17:00 +16°C° 0 mm 3 mps 713 mmHg 65%
    18:00 +14°C° 0 mm 2 mps 713 mmHg 73%
    19:00 +12°C° 0 mm 1 mps 712 mmHg 81%
    20:00 +10°C° 0 mm 1 mps 712 mmHg 89%
    21:00 +10°C° 0 mm 1 mps 712 mmHg 91%
    22:00 +9°C° 0 mm 1 mps 712 mmHg 92%
    23:00 +9°C° 0 mm 1 mps 712 mmHg 94%

    Day after tomorrow, 26 March, Sunday

    Time Temperature Precipitation Wind Pressure Humidity
    00:00 +8°C° 0 mm 1 mps 712 mmHg 94%
    01:00 +8°C° 0 mm 1 mps 711 mmHg 94%
    02:00 +8°C° 0 mm 1 mps 711 mmHg 94%
    03:00 +7°C° 0 mm 1 mps 711 mmHg 94%
    04:00 +7°C° 0 mm 1 mps 710 mmHg 93%
    05:00 +7°C° 0 mm 1 mps 710 mmHg 93%
    06:00 +8°C° 0 mm 1 mps 710 mmHg 88%
    07:00 +9°C° 0 mm 1 mps 710 mmHg 82%
    08:00 +10°C° 0 mm 1 mps 710 mmHg 77%
    09:00 +12°C° 0 mm 2 mps 710 mmHg 70%
    10:00 +14°C° 0 mm 2 mps 709 mmHg 62%
    11:00 +14°C° 0 mm 3 mps 709 mmHg 55%
    12:00 +14°C° 0.2 mm 3 mps 709 mmHg 55%
    13:00 +14°C° 0.2 mm 3 mps 708 mmHg 55%
    14:00 +14°C° 0.2 mm 4 mps 708 mmHg 56%
    15:00 +13°C° 0.4 mm 3 mps 707 mmHg 60%
    16:00 +12°C° 0.4 mm 3 mps 707 mmHg 64%
    17:00 +12°C° 0.4 mm 3 mps 707 mmHg 68%
    18:00 +10°C° 0.9 mm 2 mps 707 mmHg 74%
    19:00 +9°C° 0.9 mm 2 mps 708 mmHg 80%
    20:00 +9°C° 0.9 mm 1 mps 708 mmHg 86%
    21:00 +7°C° 1 mm 2 mps 709 mmHg 87%
    22:00 +7°C° 1 mm 2 mps 709 mmHg 89%
    23:00 +6°C° 1 mm 2 mps 710 mmHg 90%

    27 March, Monday

    Time Temperature Precipitation Wind Pressure Humidity
    00:00 +6°C° 0.5 mm 2 mps 710 mmHg 90%
    01:00 +4°C° 0.5 mm 3 mps 711 mmHg 91%
    02:00 +3°C° 0.5 mm 3 mps 711 mmHg 91%
    03:00 +4°C° 0.5 mm 2 mps 711 mmHg 91%
    04:00 +4°C° 0.5 mm 2 mps 711 mmHg 91%
    05:00 +3°C° 0.5 mm 2 mps 712 mmHg 92%
    06:00 +3°C° 0.3 mm 2 mps 712 mmHg 91%
    07:00 +3°C° 0.3 mm 2 mps 712 mmHg 90%
    08:00 +3°C° 0.3 mm 2 mps 713 mmHg 88%
    09:00 +4°C° 0.1 mm 2 mps 713 mmHg 85%
    10:00 +5°C° 0.1 mm 2 mps 713 mmHg 82%
    11:00 +4°C° 0.1 mm 3 mps 713 mmHg 79%
    12:00 +6°C° 0 mm 2 mps 713 mmHg 76%
    13:00 +7°C° 0 mm 2 mps 713 mmHg 73%
    14:00 +7°C° 0 mm 2 mps 713 mmHg 70%
    15:00 +7°C° 0 mm 2 mps 713 mmHg 70%
    16:00 +7°C° 0 mm 2 mps 713 mmHg 70%
    17:00 +7°C° 0 mm 2 mps 713 mmHg 70%
    18:00 +7°C° 0 mm 1 mps 713 mmHg 76%
    19:00 +5°C° 0 mm 1 mps 713 mmHg 82%
    20:00 +4°C° 0 mm 1 mps 713 mmHg 88%
    21:00 +3°C° 0 mm 1 mps 713 mmHg 88%
    22:00 +3°C° 0 mm 1 mps 714 mmHg 89%
    23:00 +2°C° 0 mm 1 mps 714 mmHg 90%

    28 March, Tuesday

    Time Temperature Precipitation Wind Pressure Humidity
    00:00 +2°C° 0 mm 1 mps 714 mmHg 90%
    01:00 +1°C° 0 mm 0 mps 714 mmHg 90%
    02:00 0°C° 0 mm 0 mps 714 mmHg 91%
    03:00 0°C° 0 mm 0 mps 714 mmHg 90%
    04:00 0°C° 0 mm 0 mps 715 mmHg 89%
    05:00 +1°C° 0 mm 1 mps 715 mmHg 89%
    06:00 +2°C° 0 mm 0 mps 715 mmHg 82%
    07:00 +3°C° 0 mm 0 mps 716 mmHg 74%
    08:00 +5°C° 0 mm 0 mps 716 mmHg 67%
    09:00 +8°C° 0 mm 1 mps 717 mmHg 60%
    10:00 +10°C° 0 mm 1 mps 717 mmHg 54%
    11:00 +11°C° 0 mm 1 mps 717 mmHg 47%
    12:00 +12°C° 0 mm 1 mps 717 mmHg 46%
    13:00 +13°C° 0 mm 2 mps 716 mmHg 45%
    14:00 +14°C° 0 mm 2 mps 716 mmHg 44%
    15:00 +13°C° 0 mm 2 mps 716 mmHg 46%
    16:00 +13°C° 0 mm 2 mps 715 mmHg 49%
    17:00 +13°C° 0 mm 2 mps 715 mmHg 51%
    18:00 +9°C° 0 mm 2 mps 715 mmHg 60%
    19:00 +8°C° 0 mm 1 mps 715 mmHg 70%
    20:00 +5°C° 0 mm 1 mps 715 mmHg 79%
    21:00 +5°C° 0 mm 1 mps 715 mmHg 80%
    22:00 +4°C° 0 mm 1 mps 715 mmHg 81%
    23:00 +4°C° 0 mm 1 mps 715 mmHg 82%

    29 March, Wednesday

    Time Temperature Precipitation Wind Pressure Humidity
    00:00 +4°C° 0 mm 1 mps 715 mmHg 82%
    01:00 +3°C° 0 mm 1 mps 716 mmHg 82%
    02:00 +3°C° 0 mm 1 mps 716 mmHg 82%
    03:00 +3°C° 0 mm 1 mps 716 mmHg 82%
    04:00 +3°C° 0 mm 1 mps 716 mmHg 82%
    05:00 +3°C° 0 mm 1 mps 716 mmHg 82%
    06:00 +5°C° 0 mm 1 mps 716 mmHg 74%
    07:00 +7°C° 0 mm 1 mps 717 mmHg 66%
    08:00 +8°C° 0 mm 0 mps 717 mmHg 58%
    09:00 +11°C° 0 mm 1 mps 718 mmHg 52%
    10:00 +13°C° 0 mm 1 mps 718 mmHg 46%
    11:00 +15°C° 0 mm 1 mps 718 mmHg 41%
    12:00 +15°C° 0 mm 2 mps 718 mmHg 39%
    13:00 +16°C° 0 mm 2 mps 717 mmHg 38%
    14:00 +17°C° 0 mm 2 mps 717 mmHg 37%
    15:00 +16°C° 0 mm 2 mps 717 mmHg 39%
    16:00 +16°C° 0 mm 2 mps 717 mmHg 42%
    17:00 +16°C° 0 mm 2 mps 716 mmHg 45%
    18:00 +13°C° 0 mm 1 mps 716 mmHg 55%
    19:00 +10°C° 0 mm 1 mps 716 mmHg 65%
    20:00 +7°C° 0 mm 1 mps 716 mmHg 75%
    21:00 +7°C° 0 mm 1 mps 716 mmHg 77%
    22:00 +6°C° 0 mm 1 mps 716 mmHg 78%
    23:00 +5°C° 0 mm 0 mps 716 mmHg 80%
    Show more